Time,TemperatureF,DewpointF,PressureIn,WindDirection,WindDirectionDegrees,WindSpeedMPH,WindSpeedGustMPH,Humidity,HourlyPrecipIn,Conditions,Clouds,dailyrainin,SoftwareType,DateUTC
2013-02-18 00:00:00,20.6,16.5,30.24,WNW,297,0.0,9.0,84,0.00,,,0.00,Wunderground v.1.15,2013-02-18 05:00:00,
2013-02-18 00:05:00,20.5,16.4,30.24,WNW,297,0.0,9.0,84,0.00,,,0.00,Wunderground v.1.15,2013-02-18 05:05:00,
2013-02-18 00:15:00,20.3,16.0,30.24,WNW,297,0.0,0.0,83,0.00,,,0.00,Wunderground v.1.15,2013-02-18 05:15:00,
2013-02-18 00:20:00,20.2,15.9,30.24,WNW,297,0.0,0.0,83,0.00,,,0.00,Wunderground v.1.15,2013-02-18 05:20:00,
2013-02-18 00:25:00,20.1,15.8,30.24,WNW,297,0.0,0.0,83,0.00,,,0.00,Wunderground v.1.15,2013-02-18 05:25:00,
2013-02-18 00:30:00,20.0,15.7,30.25,WNW,297,0.0,0.0,83,0.00,,,0.00,Wunderground v.1.15,2013-02-18 05:30:00,
2013-02-18 00:40:00,19.9,15.8,30.25,WNW,297,0.0,0.0,84,0.00,,,0.00,Wunderground v.1.15,2013-02-18 05:40:00,
2013-02-18 00:45:00,19.9,15.8,30.25,WNW,297,0.0,0.0,84,0.00,,,0.00,Wunderground v.1.15,2013-02-18 05:45:00,
2013-02-18 00:50:00,19.7,15.6,30.25,WNW,297,0.0,0.0,84,0.00,,,0.00,Wunderground v.1.15,2013-02-18 05:50:00,
2013-02-18 00:55:00,19.6,15.6,30.25,WNW,297,0.0,0.0,84,0.00,,,0.00,Wunderground v.1.15,2013-02-18 05:55:00,
2013-02-18 01:00:00,19.5,15.5,30.25,WNW,297,0.0,0.0,84,0.00,,,0.00,Wunderground v.1.15,2013-02-18 06:00:00,
2013-02-18 01:05:00,19.5,15.5,30.25,WNW,297,0.0,0.0,84,0.00,,,0.00,Wunderground v.1.15,2013-02-18 06:05:00,
2013-02-18 01:10:00,19.4,15.4,30.25,WNW,297,0.0,0.0,84,0.00,,,0.00,Wunderground v.1.15,2013-02-18 06:10:00,
2013-02-18 01:20:00,19.3,15.3,30.26,WNW,297,0.0,0.0,84,0.00,,,0.00,Wunderground v.1.15,2013-02-18 06:20:00,
2013-02-18 01:25:00,19.2,15.2,30.26,WNW,297,0.0,0.0,84,0.00,,,0.00,Wunderground v.1.15,2013-02-18 06:25:00,
2013-02-18 01:30:00,19.2,15.2,30.26,WNW,297,0.0,0.0,84,0.00,,,0.00,Wunderground v.1.15,2013-02-18 06:30:00,
2013-02-18 01:35:00,19.1,15.3,30.26,WNW,297,0.0,0.0,85,0.00,,,0.00,Wunderground v.1.15,2013-02-18 06:35:00,
2013-02-18 01:40:00,19.0,15.2,30.26,WNW,297,0.0,0.0,85,0.00,,,0.00,Wunderground v.1.15,2013-02-18 06:40:00,
2013-02-18 01:50:00,18.8,15.0,30.26,WNW,297,0.0,0.0,85,0.00,,,0.00,Wunderground v.1.15,2013-02-18 06:50:00,
2013-02-18 01:55:00,18.7,15.2,30.26,WNW,297,0.0,0.0,86,0.00,,,0.00,Wunderground v.1.15,2013-02-18 06:55:00,
2013-02-18 02:00:00,18.6,15.1,30.26,WNW,297,0.0,0.0,86,0.00,,,0.00,Wunderground v.1.15,2013-02-18 07:00:00,
2013-02-18 02:05:00,18.6,15.1,30.26,WNW,297,0.0,0.0,86,0.00,,,0.00,Wunderground v.1.15,2013-02-18 07:05:00,
2013-02-18 02:10:00,18.4,14.9,30.26,WNW,297,0.0,0.0,86,0.00,,,0.00,Wunderground v.1.15,2013-02-18 07:10:00,
2013-02-18 02:20:00,18.3,14.5,30.26,WNW,297,0.0,0.0,85,0.00,,,0.00,Wunderground v.1.15,2013-02-18 07:20:00,
2013-02-18 02:25:00,18.2,14.4,30.26,WNW,297,0.0,0.0,85,0.00,,,0.00,Wunderground v.1.15,2013-02-18 07:25:00,
2013-02-18 02:30:00,18.2,14.4,30.26,WNW,297,0.0,0.0,85,0.00,,,0.00,Wunderground v.1.15,2013-02-18 07:30:00,
2013-02-18 02:35:00,18.1,14.4,30.26,WNW,297,0.0,0.0,85,0.00,,,0.00,Wunderground v.1.15,2013-02-18 07:35:00,
2013-02-18 02:45:00,17.9,14.4,30.27,WNW,297,0.0,0.0,86,0.00,,,0.00,Wunderground v.1.15,2013-02-18 07:45:00,
2013-02-18 02:50:00,17.9,14.4,30.27,WNW,297,0.0,0.0,86,0.00,,,0.00,Wunderground v.1.15,2013-02-18 07:50:00,
2013-02-18 02:55:00,17.8,14.3,30.27,WNW,297,0.0,0.0,86,0.00,,,0.00,Wunderground v.1.15,2013-02-18 07:55:00,
2013-02-18 03:05:00,17.7,14.2,30.27,WNW,297,0.0,0.0,86,0.00,,,0.00,Wunderground v.1.15,2013-02-18 08:05:00,
2013-02-18 03:10:00,17.6,14.1,30.27,WNW,297,0.0,0.0,86,0.00,,,0.00,Wunderground v.1.15,2013-02-18 08:10:00,
2013-02-18 03:15:00,17.6,14.4,30.26,WNW,297,0.0,0.0,87,0.00,,,0.00,Wunderground v.1.15,2013-02-18 08:15:00,
2013-02-18 03:20:00,17.5,14.3,30.26,WNW,297,0.0,0.0,87,0.00,,,0.00,Wunderground v.1.15,2013-02-18 08:20:00,
2013-02-18 03:25:00,17.5,14.6,30.26,WNW,297,0.0,0.0,88,0.00,,,0.00,Wunderground v.1.15,2013-02-18 08:25:00,
2013-02-18 03:35:00,17.5,14.6,30.27,WNW,297,0.0,0.0,88,0.00,,,0.00,Wunderground v.1.15,2013-02-18 08:35:00,
2013-02-18 03:40:00,17.5,14.6,30.27,WNW,297,0.0,0.0,88,0.00,,,0.00,Wunderground v.1.15,2013-02-18 08:40:00,
2013-02-18 03:45:00,17.5,14.6,30.26,WNW,297,0.0,0.0,88,0.00,,,0.00,Wunderground v.1.15,2013-02-18 08:45:00,
2013-02-18 03:50:00,17.5,14.3,30.26,WNW,297,0.0,0.0,87,0.00,,,0.00,Wunderground v.1.15,2013-02-18 08:50:00,
2013-02-18 03:55:00,17.4,14.2,30.26,WNW,297,0.0,0.0,87,0.00,,,0.00,Wunderground v.1.15,2013-02-18 08:55:00,
2013-02-18 04:05:00,17.3,14.1,30.27,WNW,297,0.0,0.0,87,0.00,,,0.00,Wunderground v.1.15,2013-02-18 09:05:00,
2013-02-18 04:10:00,17.2,14.0,30.27,WNW,297,0.0,0.0,87,0.00,,,0.00,Wunderground v.1.15,2013-02-18 09:10:00,
2013-02-18 04:15:00,17.2,14.0,30.27,WNW,297,0.0,0.0,87,0.00,,,0.00,Wunderground v.1.15,2013-02-18 09:15:00,
2013-02-18 04:20:00,17.1,13.9,30.27,WNW,297,0.0,0.0,87,0.00,,,0.00,Wunderground v.1.15,2013-02-18 09:20:00,
2013-02-18 04:30:00,17.0,14.1,30.28,WNW,297,0.0,0.0,88,0.00,,,0.00,Wunderground v.1.15,2013-02-18 09:30:00,
2013-02-18 04:35:00,16.9,14.0,30.28,WNW,297,0.0,0.0,88,0.00,,,0.00,Wunderground v.1.15,2013-02-18 09:35:00,
2013-02-18 04:40:00,16.9,14.0,30.28,WNW,297,0.0,0.0,88,0.00,,,0.00,Wunderground v.1.15,2013-02-18 09:40:00,
2013-02-18 04:45:00,16.9,14.0,30.29,WNW,297,0.0,0.0,88,0.00,,,0.00,Wunderground v.1.15,2013-02-18 09:45:00,
2013-02-18 04:55:00,16.8,13.9,30.29,WNW,297,0.0,0.0,88,0.00,,,0.00,Wunderground v.1.15,2013-02-18 09:55:00,
2013-02-18 05:00:00,16.7,14.0,30.29,WNW,297,0.0,0.0,89,0.00,,,0.00,Wunderground v.1.15,2013-02-18 10:00:00,
2013-02-18 05:05:00,16.6,13.9,30.29,WNW,297,0.0,0.0,89,0.00,,,0.00,Wunderground v.1.15,2013-02-18 10:05:00,
2013-02-18 05:10:00,16.6,13.9,30.29,WNW,297,0.0,0.0,89,0.00,,,0.00,Wunderground v.1.15,2013-02-18 10:10:00,
2013-02-18 05:20:00,16.5,13.8,30.30,WNW,297,0.0,0.0,89,0.00,,,0.00,Wunderground v.1.15,2013-02-18 10:20:00,
2013-02-18 05:25:00,16.4,14.0,30.30,WNW,297,0.0,0.0,90,0.00,,,0.00,Wunderground v.1.15,2013-02-18 10:25:00,
2013-02-18 05:30:00,16.4,14.0,30.31,WNW,297,0.0,0.0,90,0.00,,,0.00,Wunderground v.1.15,2013-02-18 10:30:00,
2013-02-18 05:35:00,16.3,13.9,30.31,WNW,297,0.0,0.0,90,0.00,,,0.00,Wunderground v.1.15,2013-02-18 10:35:00,
2013-02-18 05:40:00,16.3,13.9,30.31,WNW,297,0.0,0.0,90,0.00,,,0.00,Wunderground v.1.15,2013-02-18 10:40:00,
2013-02-18 05:50:00,16.2,13.8,30.32,WNW,297,0.0,0.0,90,0.00,,,0.00,Wunderground v.1.15,2013-02-18 10:50:00,
2013-02-18 05:55:00,16.1,13.7,30.32,WNW,297,0.0,0.0,90,0.00,,,0.00,Wunderground v.1.15,2013-02-18 10:55:00,
2013-02-18 06:00:00,16.1,13.7,30.32,WNW,297,0.0,0.0,90,0.00,,,0.00,Wunderground v.1.15,2013-02-18 11:00:00,
2013-02-18 06:05:00,16.1,13.7,30.32,WNW,297,0.0,0.0,90,0.00,,,0.00,Wunderground v.1.15,2013-02-18 11:05:00,
2013-02-18 06:10:00,16.0,13.6,30.32,WNW,297,0.0,0.0,90,0.00,,,0.00,Wunderground v.1.15,2013-02-18 11:10:00,
2013-02-18 06:15:00,16.0,13.6,30.32,WNW,297,0.0,0.0,90,0.00,,,0.00,Wunderground v.1.15,2013-02-18 11:15:00,
2013-02-18 06:25:00,16.0,13.6,30.32,WNW,297,0.0,0.0,90,0.00,,,0.00,Wunderground v.1.15,2013-02-18 11:25:00,
2013-02-18 06:30:00,15.9,13.5,30.33,WNW,297,0.0,0.0,90,0.00,,,0.00,Wunderground v.1.15,2013-02-18 11:30:00,
2013-02-18 06:35:00,15.9,13.5,30.33,WNW,297,0.0,0.0,90,0.00,,,0.00,Wunderground v.1.15,2013-02-18 11:35:00,
2013-02-18 06:45:00,15.8,13.4,30.33,WNW,297,0.0,0.0,90,0.00,,,0.00,Wunderground v.1.15,2013-02-18 11:45:00,
2013-02-18 06:50:00,15.8,13.4,30.33,WNW,297,0.0,0.0,90,0.00,,,0.00,Wunderground v.1.15,2013-02-18 11:50:00,
2013-02-18 06:55:00,15.7,13.3,30.33,WNW,297,0.0,0.0,90,0.00,,,0.00,Wunderground v.1.15,2013-02-18 11:55:00,
2013-02-18 07:00:00,15.7,13.3,30.33,WNW,297,0.0,0.0,90,0.00,,,0.00,Wunderground v.1.15,2013-02-18 12:00:00,
2013-02-18 07:10:00,15.7,13.5,30.33,WNW,297,0.0,0.0,91,0.00,,,0.00,Wunderground v.1.15,2013-02-18 12:10:00,
2013-02-18 07:15:00,15.7,13.5,30.33,WNW,297,0.0,0.0,91,0.00,,,0.00,Wunderground v.1.15,2013-02-18 12:15:00,
2013-02-18 07:20:00,15.7,13.5,30.33,WNW,297,0.0,0.0,91,0.00,,,0.00,Wunderground v.1.15,2013-02-18 12:20:00,
2013-02-18 07:25:00,15.8,13.6,30.33,WNW,297,0.0,0.0,91,0.00,,,0.00,Wunderground v.1.15,2013-02-18 12:25:00,
2013-02-18 07:30:00,15.8,13.6,30.34,WNW,297,0.0,0.0,91,0.00,,,0.00,Wunderground v.1.15,2013-02-18 12:30:00,
2013-02-18 07:40:00,16.1,13.9,30.34,WNW,297,0.0,0.0,91,0.00,,,0.00,Wunderground v.1.15,2013-02-18 12:40:00,
2013-02-18 07:45:00,16.2,14.0,30.34,WNW,297,0.0,0.0,91,0.00,,,0.00,Wunderground v.1.15,2013-02-18 12:45:00,
2013-02-18 07:50:00,16.5,14.3,30.34,WNW,297,0.0,0.0,91,0.00,,,0.00,Wunderground v.1.15,2013-02-18 12:50:00,
2013-02-18 07:55:00,16.7,14.5,30.34,WNW,297,0.0,0.0,91,0.00,,,0.00,Wunderground v.1.15,2013-02-18 12:55:00,
2013-02-18 08:00:00,17.0,15.1,30.35,WNW,297,0.0,0.0,92,0.00,,,0.00,Wunderground v.1.15,2013-02-18 13:00:00,
2013-02-18 08:10:00,17.5,15.6,30.35,WNW,297,0.0,0.0,92,0.00,,,0.00,Wunderground v.1.15,2013-02-18 13:10:00,
2013-02-18 08:15:00,17.8,15.9,30.36,WNW,297,0.0,0.0,92,0.00,,,0.00,Wunderground v.1.15,2013-02-18 13:15:00,
2013-02-18 08:20:00,18.1,16.2,30.36,WNW,297,0.0,0.0,92,0.00,,,0.00,Wunderground v.1.15,2013-02-18 13:20:00,
2013-02-18 08:25:00,18.4,16.5,30.36,WNW,297,0.0,0.0,92,0.00,,,0.00,Wunderground v.1.15,2013-02-18 13:25:00,
2013-02-18 08:35:00,19.2,17.0,30.36,WNW,297,0.0,0.0,91,0.00,,,0.00,Wunderground v.1.15,2013-02-18 13:35:00,
2013-02-18 08:40:00,19.9,18.0,30.36,WNW,293,0.0,0.0,92,0.00,,,0.00,Wunderground v.1.15,2013-02-18 13:40:00,
2013-02-18 08:45:00,20.4,18.2,30.36,West,275,0.0,0.0,91,0.00,,,0.00,Wunderground v.1.15,2013-02-18 13:45:00,
2013-02-18 08:50:00,21.1,19.1,30.36,West,275,0.0,0.0,92,0.00,,,0.00,Wunderground v.1.15,2013-02-18 13:50:00,
2013-02-18 08:55:00,21.8,20.1,30.36,SSW,211,0.0,0.0,93,0.00,,,0.00,Wunderground v.1.15,2013-02-18 13:55:00,
2013-02-18 09:05:00,23.8,21.8,30.36,South,173,0.0,1.0,92,0.00,,,0.00,Wunderground v.1.15,2013-02-18 14:05:00,
2013-02-18 09:10:00,24.9,22.4,30.36,South,172,0.0,0.0,90,0.00,,,0.00,Wunderground v.1.15,2013-02-18 14:10:00,
2013-02-18 09:15:00,25.9,21.7,30.36,South,173,1.0,1.0,84,0.00,,,0.00,Wunderground v.1.15,2013-02-18 14:15:00,
2013-02-18 09:20:00,26.8,20.2,30.36,South,174,1.0,1.0,76,0.00,,,0.00,Wunderground v.1.15,2013-02-18 14:20:00,
2013-02-18 09:30:00,28.6,19.7,30.36,South,172,1.0,1.0,69,0.00,,,0.00,Wunderground v.1.15,2013-02-18 14:30:00,
2013-02-18 09:35:00,29.7,19.7,30.36,South,173,1.0,1.0,66,0.00,,,0.00,Wunderground v.1.15,2013-02-18 14:35:00,
2013-02-18 09:40:00,30.4,20.4,30.36,South,173,0.0,2.0,66,0.00,,,0.00,Wunderground v.1.15,2013-02-18 14:40:00,
2013-02-18 09:45:00,31.2,19.7,30.35,South,172,0.0,2.0,62,0.00,,,0.00,Wunderground v.1.15,2013-02-18 14:45:00,
2013-02-18 09:50:00,31.9,19.6,30.35,South,173,1.0,1.0,60,0.00,,,0.00,Wunderground v.1.15,2013-02-18 14:50:00,
2013-02-18 10:00:00,33.0,20.2,30.36,South,179,1.0,2.0,59,0.00,,,0.00,Wunderground v.1.15,2013-02-18 15:00:00,
2013-02-18 10:05:00,33.5,19.0,30.36,South,172,1.0,2.0,55,0.00,,,0.00,Wunderground v.1.15,2013-02-18 15:05:00,
2013-02-18 10:10:00,34.0,19.1,30.36,South,172,1.0,1.0,54,0.00,,,0.00,Wunderground v.1.15,2013-02-18 15:10:00,
2013-02-18 10:15:00,34.4,19.0,30.35,South,172,1.0,2.0,53,0.00,,,0.00,Wunderground v.1.15,2013-02-18 15:15:00,
2013-02-18 10:20:00,34.8,18.9,30.35,SSW,193,2.0,2.0,52,0.00,,,0.00,Wunderground v.1.15,2013-02-18 15:20:00,
2013-02-18 10:30:00,35.5,18.7,30.35,SSW,210,2.0,2.0,50,0.00,,,0.00,Wunderground v.1.15,2013-02-18 15:30:00,
2013-02-18 10:35:00,35.9,19.5,30.35,South,172,1.0,2.0,51,0.00,,,0.00,Wunderground v.1.15,2013-02-18 15:35:00,
2013-02-18 10:40:00,36.4,18.6,30.35,South,188,1.0,1.0,48,0.00,,,0.00,Wunderground v.1.15,2013-02-18 15:40:00,
2013-02-18 10:45:00,36.9,20.4,30.35,South,172,1.0,1.0,51,0.00,,,0.00,Wunderground v.1.15,2013-02-18 15:45:00,
2013-02-18 10:55:00,37.9,19.9,30.35,SW,225,2.0,2.0,48,0.00,,,0.00,Wunderground v.1.15,2013-02-18 15:55:00,
2013-02-18 11:00:00,38.4,19.4,30.34,South,172,2.0,2.0,46,0.00,,,0.00,Wunderground v.1.15,2013-02-18 16:00:00,
2013-02-18 11:05:00,38.9,20.4,30.34,South,173,1.0,3.0,47,0.00,,,0.00,Wunderground v.1.15,2013-02-18 16:05:00,
2013-02-18 11:10:00,39.4,20.3,30.34,South,172,1.0,1.0,46,0.00,,,0.00,Wunderground v.1.15,2013-02-18 16:10:00,
2013-02-18 11:20:00,40.7,20.5,30.34,South,188,1.0,1.0,44,0.00,,,0.00,Wunderground v.1.15,2013-02-18 16:20:00,
2013-02-18 11:25:00,41.0,20.7,30.34,South,184,2.0,2.0,44,0.00,,,0.00,Wunderground v.1.15,2013-02-18 16:25:00,
2013-02-18 11:30:00,41.2,19.8,30.34,South,172,2.0,2.0,42,0.00,,,0.00,Wunderground v.1.15,2013-02-18 16:30:00,
2013-02-18 11:35:00,41.3,19.9,30.34,South,173,2.0,3.0,42,0.00,,,0.00,Wunderground v.1.15,2013-02-18 16:35:00,
2013-02-18 11:45:00,41.7,20.8,30.34,South,172,2.0,3.0,43,0.00,,,0.00,Wunderground v.1.15,2013-02-18 16:45:00,
2013-02-18 11:50:00,41.8,18.6,30.34,NNW,346,2.0,2.0,39,0.00,,,0.00,Wunderground v.1.15,2013-02-18 16:50:00,
2013-02-18 11:55:00,42.1,20.6,30.34,South,179,2.0,2.0,42,0.00,,,0.00,Wunderground v.1.15,2013-02-18 16:55:00,
2013-02-18 12:00:00,42.7,21.7,30.33,South,184,2.0,2.0,43,0.00,,,0.00,Wunderground v.1.15,2013-02-18 17:00:00,
2013-02-18 12:05:00,43.5,20.7,30.33,SW,225,2.0,4.0,40,0.00,,,0.00,Wunderground v.1.15,2013-02-18 17:05:00,
2013-02-18 12:15:00,44.5,19.8,30.32,South,172,2.0,3.0,37,0.00,,,0.00,Wunderground v.1.15,2013-02-18 17:15:00,
2013-02-18 12:20:00,44.9,20.2,30.32,South,175,2.0,3.0,37,0.00,,,0.00,Wunderground v.1.15,2013-02-18 17:20:00,
2013-02-18 12:30:00,45.6,23.2,30.31,South,172,2.0,3.0,41,0.00,,,0.00,Wunderground v.1.15,2013-02-18 17:30:00,
2013-02-18 12:35:00,45.7,20.9,30.31,South,189,2.0,3.0,37,0.00,,,0.00,Wunderground v.1.15,2013-02-18 17:35:00,
2013-02-18 12:40:00,45.7,22.1,30.31,South,173,2.0,3.0,39,0.00,,,0.00,Wunderground v.1.15,2013-02-18 17:40:00,
2013-02-18 12:50:00,46.0,21.8,30.30,South,185,2.0,4.0,38,0.00,,,0.00,Wunderground v.1.15,2013-02-18 17:50:00,
2013-02-18 12:55:00,46.3,21.4,30.30,South,172,1.0,4.0,37,0.00,,,0.00,Wunderground v.1.15,2013-02-18 17:55:00,
2013-02-18 13:00:00,46.9,20.6,30.29,South,172,1.0,1.0,35,0.00,,,0.00,Wunderground v.1.15,2013-02-18 18:00:00,
2013-02-18 13:05:00,47.4,21.1,30.29,SW,219,1.0,4.0,35,0.00,,,0.00,Wunderground v.1.15,2013-02-18 18:05:00,
2013-02-18 13:15:00,47.4,22.4,30.28,South,172,2.0,5.0,37,0.00,,,0.00,Wunderground v.1.15,2013-02-18 18:15:00,
2013-02-18 13:20:00,47.8,21.4,30.28,South,174,2.0,5.0,35,0.00,,,0.00,Wunderground v.1.15,2013-02-18 18:20:00,
2013-02-18 13:25:00,47.8,22.1,30.28,South,172,2.0,5.0,36,0.00,,,0.00,Wunderground v.1.15,2013-02-18 18:25:00,
2013-02-18 13:30:00,47.5,21.2,30.28,SW,221,3.0,5.0,35,0.00,,,0.00,Wunderground v.1.15,2013-02-18 18:30:00,
2013-02-18 13:35:00,47.3,18.9,30.28,SW,219,3.0,5.0,32,0.00,,,0.00,Wunderground v.1.15,2013-02-18 18:35:00,
2013-02-18 13:45:00,47.4,19.0,30.27,SW,221,2.0,5.0,32,0.00,,,0.00,Wunderground v.1.15,2013-02-18 18:45:00,
2013-02-18 13:50:00,47.5,20.5,30.27,South,174,2.0,2.0,34,0.00,,,0.00,Wunderground v.1.15,2013-02-18 18:50:00,
2013-02-18 13:55:00,47.4,21.7,30.27,South,174,2.0,5.0,36,0.00,,,0.00,Wunderground v.1.15,2013-02-18 18:55:00,
2013-02-18 14:00:00,47.4,21.1,30.26,WSW,238,2.0,5.0,35,0.00,,,0.00,Wunderground v.1.15,2013-02-18 19:00:00,
2013-02-18 14:10:00,47.6,19.9,30.26,South,178,2.0,5.0,33,0.00,,,0.00,Wunderground v.1.15,2013-02-18 19:10:00,
2013-02-18 14:15:00,47.7,20.0,30.26,WNW,285,2.0,5.0,33,0.00,,,0.00,Wunderground v.1.15,2013-02-18 19:15:00,
2013-02-18 14:20:00,47.8,20.8,30.26,West,270,2.0,5.0,34,0.00,,,0.00,Wunderground v.1.15,2013-02-18 19:20:00,
2013-02-18 14:30:00,48.3,21.9,30.25,WSW,252,2.0,5.0,35,0.00,,,0.00,Wunderground v.1.15,2013-02-18 19:30:00,
2013-02-18 14:35:00,48.7,20.8,30.25,WNW,290,2.0,5.0,33,0.00,,,0.00,Wunderground v.1.15,2013-02-18 19:35:00,
2013-02-18 14:40:00,48.8,22.3,30.25,South,174,1.0,5.0,35,0.00,,,0.00,Wunderground v.1.15,2013-02-18 19:40:00,
2013-02-18 14:45:00,48.8,22.3,30.25,South,174,2.0,5.0,35,0.00,,,0.00,Wunderground v.1.15,2013-02-18 19:45:00,
2013-02-18 14:50:00,48.9,22.4,30.25,South,188,2.0,2.0,35,0.00,,,0.00,Wunderground v.1.15,2013-02-18 19:50:00,
2013-02-18 15:00:00,48.8,23.0,30.25,SSW,207,2.0,5.0,36,0.00,,,0.00,Wunderground v.1.15,2013-02-18 20:00:00,
2013-02-18 15:05:00,49.1,21.2,30.25,SW,219,2.0,5.0,33,0.00,,,0.00,Wunderground v.1.15,2013-02-18 20:05:00,
2013-02-18 15:10:00,49.3,22.1,30.25,SSW,204,2.0,5.0,34,0.00,,,0.00,Wunderground v.1.15,2013-02-18 20:10:00,
2013-02-18 15:15:00,49.5,22.3,30.24,South,173,2.0,5.0,34,0.00,,,0.00,Wunderground v.1.15,2013-02-18 20:15:00,
2013-02-18 15:25:00,49.8,22.5,30.24,South,185,1.0,5.0,34,0.00,,,0.00,Wunderground v.1.15,2013-02-18 20:25:00,
2013-02-18 15:30:00,50.2,22.9,30.24,SSW,205,2.0,5.0,34,0.00,,,0.00,Wunderground v.1.15,2013-02-18 20:30:00,
2013-02-18 15:35:00,50.4,23.7,30.24,South,172,2.0,5.0,35,0.00,,,0.00,Wunderground v.1.15,2013-02-18 20:35:00,
2013-02-18 15:45:00,50.4,23.1,30.24,South,174,3.0,5.0,34,0.00,,,0.00,Wunderground v.1.15,2013-02-18 20:45:00,
2013-02-18 15:50:00,50.5,24.5,30.24,South,187,3.0,3.0,36,0.00,,,0.00,Wunderground v.1.15,2013-02-18 20:50:00,
2013-02-18 15:55:00,50.4,25.7,30.24,South,186,2.0,5.0,38,0.00,,,0.00,Wunderground v.1.15,2013-02-18 20:55:00,
2013-02-18 16:00:00,50.4,25.7,30.24,South,174,2.0,5.0,38,0.00,,,0.00,Wunderground v.1.15,2013-02-18 21:00:00,
2013-02-18 16:05:00,50.5,25.2,30.24,SW,217,2.0,5.0,37,0.00,,,0.00,Wunderground v.1.15,2013-02-18 21:05:00,
2013-02-18 16:15:00,50.8,25.4,30.23,South,173,3.0,5.0,37,0.00,,,0.00,Wunderground v.1.15,2013-02-18 21:15:00,
2013-02-18 16:20:00,50.8,24.8,30.23,South,172,3.0,5.0,36,0.00,,,0.00,Wunderground v.1.15,2013-02-18 21:20:00,
2013-02-18 16:25:00,50.6,24.6,30.23,SSW,205,3.0,5.0,36,0.00,,,0.00,Wunderground v.1.15,2013-02-18 21:25:00,
2013-02-18 16:30:00,50.3,24.3,30.23,South,184,2.0,2.0,36,0.00,,,0.00,Wunderground v.1.15,2013-02-18 21:30:00,
2013-02-18 16:40:00,49.8,24.5,30.23,SSW,200,1.0,5.0,37,0.00,,,0.00,Wunderground v.1.15,2013-02-18 21:40:00,
2013-02-18 16:45:00,49.4,25.4,30.23,South,172,2.0,5.0,39,0.00,,,0.00,Wunderground v.1.15,2013-02-18 21:45:00,
2013-02-18 16:50:00,49.0,25.1,30.23,South,172,2.0,2.0,39,0.00,,,0.00,Wunderground v.1.15,2013-02-18 21:50:00,
2013-02-18 16:59:00,48.3,25.7,30.23,South,176,2.0,5.0,41,0.00,,,0.00,Wunderground v.1.15,2013-02-18 21:59:00,
2013-02-18 17:05:00,47.8,25.2,30.23,South,181,2.0,5.0,41,0.00,,,0.00,Wunderground v.1.15,2013-02-18 22:05:00,
2013-02-18 17:10:00,47.4,25.4,30.23,South,171,2.0,5.0,42,0.00,,,0.00,Wunderground v.1.15,2013-02-18 22:10:00,
2013-02-18 17:15:00,47.1,25.7,30.23,South,171,1.0,5.0,43,0.00,,,0.00,Wunderground v.1.15,2013-02-18 22:15:00,
2013-02-18 17:25:00,46.3,25.0,30.23,South,171,1.0,5.0,43,0.00,,,0.00,Wunderground v.1.15,2013-02-18 22:25:00,
2013-02-18 17:30:00,45.9,24.6,30.23,South,171,0.0,5.0,43,0.00,,,0.00,Wunderground v.1.15,2013-02-18 22:30:00,
2013-02-18 17:35:00,45.6,25.5,30.23,South,172,1.0,5.0,45,0.00,,,0.00,Wunderground v.1.15,2013-02-18 22:35:00,
2013-02-18 17:40:00,45.2,25.1,30.23,South,171,1.0,5.0,45,0.00,,,0.00,Wunderground v.1.15,2013-02-18 22:40:00,
2013-02-18 17:45:00,44.9,24.3,30.24,SSW,198,1.0,5.0,44,0.00,,,0.00,Wunderground v.1.15,2013-02-18 22:45:00,
2013-02-18 17:55:00,44.2,23.6,30.24,SSE,153,1.0,5.0,44,0.00,,,0.00,Wunderground v.1.15,2013-02-18 22:55:00,
2013-02-18 18:00:00,44.0,24.0,30.24,East,91,0.0,5.0,45,0.00,,,0.00,Wunderground v.1.15,2013-02-18 23:00:00,
2013-02-18 18:05:00,43.7,24.2,30.24,SSE,148,1.0,5.0,46,0.00,,,0.00,Wunderground v.1.15,2013-02-18 23:05:00,
2013-02-18 18:15:00,43.1,24.2,30.25,South,181,1.0,5.0,47,0.00,,,0.00,Wunderground v.1.15,2013-02-18 23:15:00,
2013-02-18 18:20:00,42.8,23.9,30.25,SW,214,1.0,5.0,47,0.00,,,0.00,Wunderground v.1.15,2013-02-18 23:20:00,
2013-02-18 18:25:00,42.5,24.2,30.25,South,172,1.0,5.0,48,0.00,,,0.00,Wunderground v.1.15,2013-02-18 23:25:00,
2013-02-18 18:30:00,42.3,24.0,30.25,ESE,122,1.0,5.0,48,0.00,,,0.00,Wunderground v.1.15,2013-02-18 23:30:00,
2013-02-18 18:40:00,41.9,24.1,30.25,South,172,1.0,1.0,49,0.00,,,0.00,Wunderground v.1.15,2013-02-18 23:40:00,
2013-02-18 18:45:00,41.7,23.4,30.25,SE,137,0.0,5.0,48,0.00,,,0.00,Wunderground v.1.15,2013-02-18 23:45:00,
2013-02-18 18:50:00,41.7,23.4,30.25,SE,140,0.0,5.0,48,0.00,,,0.00,Wunderground v.1.15,2013-02-18 23:50:00,
2013-02-18 18:55:00,41.7,23.4,30.25,SE,134,0.0,5.0,48,0.00,,,0.00,Wunderground v.1.15,2013-02-18 23:55:00,
2013-02-18 19:05:00,41.1,23.9,30.25,SSE,155,0.0,5.0,50,0.00,,,0.00,Wunderground v.1.15,2013-02-19 00:05:00,
2013-02-18 19:10:00,40.9,23.2,30.25,East,80,0.0,5.0,49,0.00,,,0.00,Wunderground v.1.15,2013-02-19 00:10:00,
2013-02-18 19:15:00,40.7,24.0,30.25,East,98,0.0,5.0,51,0.00,,,0.00,Wunderground v.1.15,2013-02-19 00:15:00,
2013-02-18 19:20:00,40.6,23.4,30.25,SSW,204,0.0,5.0,50,0.00,,,0.00,Wunderground v.1.15,2013-02-19 00:20:00,
2013-02-18 19:30:00,40.0,24.2,30.25,SE,133,0.0,5.0,53,0.00,,,0.00,Wunderground v.1.15,2013-02-19 00:30:00,
2013-02-18 19:40:00,39.3,26.2,30.25,SSE,160,0.0,5.0,59,0.00,,,0.00,Wunderground v.1.15,2013-02-19 00:40:00,
2013-02-18 19:45:00,38.9,24.9,30.25,ESE,117,0.0,5.0,57,0.00,,,0.00,Wunderground v.1.15,2013-02-19 00:45:00,
2013-02-18 19:55:00,38.2,24.3,30.25,South,176,0.0,5.0,57,0.00,,,0.00,Wunderground v.1.15,2013-02-19 00:55:00,
2013-02-18 20:00:00,38.0,24.1,30.25,South,176,0.0,5.0,57,0.00,,,0.00,Wunderground v.1.15,2013-02-19 01:00:00,
2013-02-18 20:05:00,37.8,24.3,30.25,SE,134,0.0,5.0,58,0.00,,,0.00,Wunderground v.1.15,2013-02-19 01:05:00,
2013-02-18 20:15:00,37.3,24.3,30.24,South,188,0.0,5.0,59,0.00,,,0.00,Wunderground v.1.15,2013-02-19 01:15:00,
2013-02-18 20:20:00,37.1,24.5,30.24,South,189,0.0,5.0,60,0.00,,,0.00,Wunderground v.1.15,2013-02-19 01:20:00,
2013-02-18 20:30:00,36.5,25.8,30.23,South,169,1.0,5.0,65,0.00,,,0.00,Wunderground v.1.15,2013-02-19 01:30:00,
2013-02-18 20:40:00,36.3,26.0,30.23,SW,226,2.0,2.0,66,0.00,,,0.00,Wunderground v.1.15,2013-02-19 01:40:00,
2013-02-18 20:45:00,36.3,26.0,30.23,SSE,167,2.0,5.0,66,0.00,,,0.00,Wunderground v.1.15,2013-02-19 01:45:00,
2013-02-18 20:50:00,36.3,25.3,30.23,SSW,196,2.0,2.0,64,0.00,,,0.00,Wunderground v.1.15,2013-02-19 01:50:00,
2013-02-18 20:55:00,36.4,25.7,30.23,South,181,1.0,5.0,65,0.00,,,0.00,Wunderground v.1.15,2013-02-19 01:55:00,
2013-02-18 21:05:00,36.6,25.9,30.23,SSW,198,1.0,5.0,65,0.00,,,0.00,Wunderground v.1.15,2013-02-19 02:05:00,
2013-02-18 21:10:00,36.7,26.0,30.23,SSW,203,1.0,1.0,65,0.00,,,0.00,Wunderground v.1.15,2013-02-19 02:10:00,
2013-02-18 21:15:00,36.7,25.3,30.22,SSW,200,1.0,5.0,63,0.00,,,0.00,Wunderground v.1.15,2013-02-19 02:15:00,
2013-02-18 21:20:00,36.7,25.3,30.22,South,172,1.0,1.0,63,0.00,,,0.00,Wunderground v.1.15,2013-02-19 02:20:00,
2013-02-18 21:30:00,36.7,24.5,30.21,South,174,1.0,1.0,61,0.00,,,0.00,Wunderground v.1.15,2013-02-19 02:30:00,
2013-02-18 21:35:00,36.7,24.9,30.21,WSW,242,1.0,2.0,62,0.00,,,0.00,Wunderground v.1.15,2013-02-19 02:35:00,
2013-02-18 21:40:00,36.7,24.5,30.21,SSW,205,1.0,1.0,61,0.00,,,0.00,Wunderground v.1.15,2013-02-19 02:40:00,
2013-02-18 21:50:00,36.7,25.3,30.21,WSW,245,1.0,5.0,63,0.00,,,0.00,Wunderground v.1.15,2013-02-19 02:50:00,
2013-02-18 21:55:00,36.8,25.4,30.21,South,182,2.0,5.0,63,0.00,,,0.00,Wunderground v.1.15,2013-02-19 02:55:00,
2013-02-18 22:00:00,36.9,25.5,30.21,SW,229,2.0,2.0,63,0.00,,,0.00,Wunderground v.1.15,2013-02-19 03:00:00,
2013-02-18 22:05:00,37.1,26.0,30.21,South,186,2.0,3.0,64,0.00,,,0.00,Wunderground v.1.15,2013-02-19 03:05:00,
2013-02-18 22:10:00,37.3,26.2,30.21,South,170,2.0,5.0,64,0.00,,,0.00,Wunderground v.1.15,2013-02-19 03:10:00,
2013-02-18 22:20:00,38.0,26.5,30.21,SW,223,2.0,5.0,63,0.00,,,0.00,Wunderground v.1.15,2013-02-19 03:20:00,
2013-02-18 22:30:00,38.2,26.3,30.20,South,188,3.0,3.0,62,0.00,,,0.00,Wunderground v.1.15,2013-02-19 03:30:00,
2013-02-18 22:35:00,38.4,26.5,30.20,SSW,193,3.0,5.0,62,0.00,,,0.00,Wunderground v.1.15,2013-02-19 03:35:00,
2013-02-18 22:40:00,38.5,26.2,30.20,SSE,157,3.0,3.0,61,0.00,,,0.00,Wunderground v.1.15,2013-02-19 03:40:00,
2013-02-18 22:45:00,38.4,26.5,30.20,SSW,199,2.0,5.0,62,0.00,,,0.00,Wunderground v.1.15,2013-02-19 03:45:00,
2013-02-18 22:55:00,38.5,26.6,30.20,SSW,194,2.0,5.0,62,0.00,,,0.00,Wunderground v.1.15,2013-02-19 03:55:00,
2013-02-18 23:00:00,38.5,26.6,30.20,SSW,210,2.0,5.0,62,0.00,,,0.00,Wunderground v.1.15,2013-02-19 04:00:00,
2013-02-18 23:05:00,38.5,26.6,30.20,SSW,213,3.0,5.0,62,0.00,,,0.00,Wunderground v.1.15,2013-02-19 04:05:00,
2013-02-18 23:10:00,38.5,27.0,30.20,SSW,195,3.0,5.0,63,0.00,,,0.00,Wunderground v.1.15,2013-02-19 04:10:00,
2013-02-18 23:19:00,38.6,27.1,30.20,South,170,2.0,5.0,63,0.00,,,0.00,Wunderground v.1.15,2013-02-19 04:19:00,
2013-02-18 23:25:00,38.5,27.0,30.20,SSE,156,2.0,5.0,63,0.00,,,0.00,Wunderground v.1.15,2013-02-19 04:25:00,
2013-02-18 23:30:00,38.5,27.0,30.20,South,184,2.0,5.0,63,0.00,,,0.00,Wunderground v.1.15,2013-02-19 04:30:00,
2013-02-18 23:35:00,38.4,27.3,30.20,South,191,3.0,5.0,64,0.00,,,0.00,Wunderground v.1.15,2013-02-19 04:35:00,
2013-02-18 23:45:00,38.1,27.0,30.19,South,188,2.0,5.0,64,0.00,,,0.00,Wunderground v.1.15,2013-02-19 04:45:00,
2013-02-18 23:50:00,38.0,27.3,30.19,South,174,2.0,2.0,65,0.00,,,0.00,Wunderground v.1.15,2013-02-19 04:50:00,
2013-02-18 23:55:00,37.9,27.2,30.19,SSW,210,2.0,5.0,65,0.00,,,0.00,Wunderground v.1.15,2013-02-19 04:55:00,